Vertical_Velocity
-2 -1 -3 -5 -2 -2 -4 -1 -1 -2 -2 -1 -3 -1 0 1 1 0 -3 -0 -3 2 -3 0 -3 0 -1 0 1 5 -12 -12 3 6 16 11 3 1 11 1 -1 1 1 8 4
-2 -3 -1 -1 0 -1 -1 -2 -4 -2 -1 -3 -1 -0 0 1 4 1 0 -2 -1 -0 -1 1 0 -3 -4 -1 -0 -4 -7 7 8 9 3 2 7 -3 2 3 3 -2 5 4 2
-2 -1 -1 -2 -2 -2 -1 -1 -2 -1 -1 -1 -2 -2 0 0 2 0 2 0 1 1 -0 -1 -0 -1 -1 -1 -0 -0 -7 3 4 8 5 1 4 -7 2 1 9 7 -4 -1 2
-1 -0 -3 -2 -2 -1 -2 -1 -2 -1 -2 -2 -2 -3 -1 2 -4 2 1 0 1 1 2 0 -2 -0 0 -4 -0 -4 4 1 5 8 1 -1 0 5 -3 4 3 4 -1 0 6
-1 -3 -1 -1 -2 -2 -3 -2 -2 -2 -2 -1 -1 -3 -1 -3 -2 3 -0 2 -1 1 2 2 1 -2 -1 0 0 -2 -0 2 3 0 1 4 -4 -0 3 -5 1 2 2 -0 0
-3 -1 -1 -1 -3 -3 -2 -2 -1 -0 -1 0 1 1 -1 -3 1 1 3 1 1 -0 0 2 1 0 -1 1 0 3 1 -1 -0 3 1 7 -3 -4 5 6 4 3 4 2 1
1 0 -1 -3 -3 -3 -2 -0 -1 -2 -1 -0 0 1 1 2 0 -1 1 1 -0 -0 1 1 -0 1 3 -1 3 2 1 3 2 4 2 2 -5 -5 6 5 -1 2 5 3 -2
1 -1 -2 -0 -2 -3 -0 -1 -1 -2 -1 -1 0 1 -1 2 1 1 -0 1 -1 -1 2 -0 -0 0 3 1 -0 2 -1 1 5 5 3 4 8 1 3 4 2 -0 4 4 -1
0 -1 -2 -3 -3 -2 -1 -3 -1 -1 -2 -1 1 0 0 2 3 2 2 -0 2 -0 0 0 0 1 -0 2 -1 2 2 4 3 3 -3 -2 10 -0 0 2 -1 1 3 1 -4
-1 -2 -2 -1 -1 -2 -4 -1 0 -0 -0 -1 -0 -1 1 1 1 1 0 1 1 1 -1 2 0 0 0 -1 4 -1 -2 1 -1 2 1 -3 7 2 0 -1 -5 -3 -3 1 5
-2 -2 -2 -2 -3 -5 -2 1 -2 1 -1 1 1 0 -0 1 1 -0 1 1 2 1 -0 0 2 2 1 -0 0 2 2 2 2 -3 -4 0 4 4 1 4 2 5 4 2 4
-4 -3 -4 -5 -3 0 1 -2 -5 -3 -2 1 0 1 -0 1 2 0 2 3 3 3 2 1 0 -1 1 1 -0 -0 -0 4 1 3 -2 -3 5 4 -4 5 2 -1 -1 4 1
-1 -2 -2 -2 -1 -3 -1 -2 -2 -4 -1 2 1 1 -0 1 1 3 1 2 2 1 1 2 0 -0 -0 1 1 0 0 2 1 -1 -2 3 8 4 -1 -1 3 -1 3 1 3
-1 -2 -3 -2 2 4 -5 -1 -1 -3 -5 -1 -0 -0 2 1 2 -0 1 0 1 1 -1 -1 0 -0 1 -1 -1 2 1 1 -0 -3 -3 4 -4 7 1 3 1 -0 -1 -2 1
3 -5 -4 -4 -2 -3 -3 -3 -1 0 -5 -2 -2 -1 1 1 -0 2 -1 -1 -0 0 2 -3 -3 -2 1 -1 -1 2 1 -0 -0 -2 -1 5 -6 2 3 1 -3 -1 -1 -2 -0
-4 -4 -4 -5 -3 -2 -2 -1 -0 -2 -1 -1 0 1 -1 -0 -0 -1 0 -0 -0 1 1 -1 0 -1 -0 1 1 -1 1 -1 -1 0 -7 7 2 -1 3 3 -1 -0 0 2 1
-3 -4 -3 -4 2 -2 -2 -4 -4 -0 -0 2 1 1 5 0 0 0 -2 -2 -2 -1 3 -0 0 -1 -1 0 0 0 0 -2 -3 3 -4 5 4 -9 3 3 1 -1 -2 1 1
-5 -2 -6 -7 -4 -4 -3 -3 0 3 4 1 -1 -2 1 2 1 -2 -1 -1 1 1 -0 0 0 1 -0 -1 -1 -1 2 3 -4 -1 0 -2 -8 -3 2 4 3 -0 -0 -1 1
-3 -2 -5 1 -3 -4 -5 1 -0 -1 -1 4 1 1 3 -0 -1 -0 1 1 1 2 0 -3 4 1 0 2 3 0 -0 0 -4 -1 0 3 0 3 -3 -2 2 3 2 1 2
-2 -4 1 -1 -1 -3 -0 -2 -1 -1 0 -1 -0 3 1 2 -2 -3 -1 -1 -0 -0 1 -2 -2 1 0 1 -2 0 1 -1 -0 -6 -1 -3 -3 -5 2 1 2 2 1 3 5
-2 -6 -5 -4 -2 -3 2 1 -1 -1 1 -2 -1 -1 2 2 2 5 1 0 2 -3 -2 0 3 4 1 1 0 1 1 1 2 2 -4 -0 -7 4 -1 2 3 2 1 3 2
-0 4 0 -3 -2 -1 -1 -3 0 -2 -2 -2 -1 2 2 2 0 -0 -1 2 1 -0 -1 -1 -3 1 1 1 -0 -0 1 3 3 3 3 4 0 -3 -1 -0 -1 0 2 3 2
-4 -0 -2 -1 2 -4 -8 -4 -2 -1 -2 -2 -1 0 3 2 -2 -1 -1 1 -0 -2 -1 3 -2 1 -1 -2 -3 -1 -0 2 5 8 6 7 -3 2 4 4 4 4 2 2 1
-4 -3 -6 -7 -7 -5 -3 -3 -2 -3 -0 2 1 2 0 -0 1 -0 2 2 1 -1 -1 -1 -1 1 -0 1 -1 -2 -0 -3 5 8 4 5 1 2 2 2 2 2 2 3 3
-9 -6 -2 -1 2 -0 -0 -2 -4 -4 -2 -2 3 3 2 0 0 0 2 1 0 -2 -2 -1 0 -1 -3 -4 -3 -3 -2 -4 1 -0 2 8 4 6 3 2 0 0 2 3 4
4 -6 -5 -7 -3 -6 -4 -2 -1 -0 1 -1 0 2 1 1 2 1 1 -0 1 3 2 -2 -3 -3 -3 -5 -4 -5 -2 -2 -6 -1 0 -1 1 4 6 4 0 2 2 1 1
-7 1 -4 -7 -3 -1 -2 -1 -2 -0 1 0 -0 0 0 -0 -0 0 1 1 1 -0 2 1 -1 -1 -2 -3 -3 -4 -4 -4 -2 -4 -4 -2 -2 1 2 4 2 1 1 1 0
Height
5760 5754 5749 5744 5738 5732 5727 5720 5714 5708 5701 5696 5690 5686 5684 5681 5678 5676 5675 5675 5674 5673 5673 5674 5673 5673 5672 5671 5672 5675 5678 5686 5693 5700 5711 5716 5719 5720 5723 5729 5733 5737 5742 5746 5750
5754 5749 5744 5738 5731 5725 5719 5712 5705 5699 5691 5684 5679 5676 5672 5671 5668 5666 5665 5664 5663 5662 5662 5663 5662 5662 5662 5660 5661 5664 5668 5678 5684 5689 5697 5703 5708 5712 5715 5720 5725 5730 5734 5738 5742
5748 5744 5738 5731 5725 5718 5712 5704 5697 5689 5681 5674 5669 5665 5662 5660 5658 5657 5655 5654 5653 5652 5652 5652 5652 5651 5651 5651 5652 5655 5660 5666 5670 5676 5684 5692 5698 5702 5707 5712 5717 5721 5723 5728 5734
5743 5737 5731 5724 5718 5711 5703 5696 5688 5680 5672 5666 5660 5656 5652 5650 5649 5648 5646 5645 5644 5643 5643 5642 5642 5641 5641 5641 5643 5646 5650 5654 5659 5663 5670 5678 5686 5693 5698 5704 5708 5712 5716 5721 5726
5737 5731 5724 5718 5711 5703 5695 5687 5679 5670 5662 5655 5650 5645 5642 5640 5639 5637 5636 5635 5635 5634 5634 5634 5633 5632 5632 5633 5635 5636 5641 5644 5647 5652 5659 5666 5674 5680 5688 5693 5699 5704 5708 5712 5716
5732 5725 5718 5711 5704 5696 5687 5678 5669 5661 5652 5645 5640 5635 5632 5630 5628 5627 5627 5627 5626 5626 5625 5625 5624 5624 5625 5626 5626 5628 5630 5634 5638 5642 5646 5653 5661 5669 5678 5683 5687 5693 5699 5702 5707
5726 5719 5712 5705 5696 5687 5679 5670 5661 5651 5642 5635 5630 5626 5622 5621 5619 5617 5617 5617 5617 5616 5616 5616 5615 5616 5617 5617 5619 5620 5621 5623 5628 5632 5636 5641 5648 5660 5665 5671 5677 5683 5688 5692 5697
5721 5714 5706 5698 5689 5680 5670 5661 5652 5642 5634 5626 5620 5616 5614 5612 5610 5609 5608 5608 5608 5607 5608 5608 5607 5607 5607 5609 5610 5611 5612 5614 5619 5622 5625 5629 5640 5644 5651 5659 5665 5671 5677 5682 5687
5715 5707 5699 5690 5681 5672 5662 5653 5643 5633 5625 5618 5613 5608 5605 5604 5602 5601 5599 5599 5599 5599 5598 5599 5599 5599 5599 5600 5601 5602 5605 5607 5608 5610 5614 5619 5628 5632 5638 5643 5651 5659 5664 5670 5677
5709 5701 5692 5683 5673 5664 5654 5643 5633 5625 5617 5610 5604 5601 5597 5595 5593 5593 5592 5591 5590 5591 5590 5590 5591 5591 5591 5592 5593 5593 5595 5597 5599 5603 5604 5609 5617 5621 5625 5630 5636 5643 5651 5658 5664
5704 5694 5685 5676 5666 5655 5644 5634 5626 5618 5609 5602 5596 5592 5588 5587 5585 5584 5583 5583 5583 5582 5582 5582 5583 5583 5583 5584 5584 5586 5587 5588 5590 5592 5595 5599 5607 5610 5615 5621 5627 5632 5636 5642 5648
5696 5688 5678 5669 5658 5647 5635 5625 5615 5609 5601 5594 5588 5584 5581 5579 5578 5576 5576 5576 5575 5575 5574 5576 5575 5575 5575 5575 5576 5576 5578 5580 5581 5583 5586 5590 5597 5598 5603 5610 5614 5618 5624 5628 5632
5690 5682 5672 5661 5650 5638 5627 5617 5607 5598 5593 5586 5581 5576 5574 5572 5570 5568 5567 5566 5566 5566 5566 5566 5566 5566 5565 5566 5567 5567 5569 5570 5573 5574 5576 5580 5586 5586 5589 5596 5601 5606 5611 5616 5622
5685 5675 5665 5655 5643 5630 5619 5609 5599 5590 5583 5578 5573 5569 5567 5564 5563 5560 5559 5559 5558 5558 5557 5557 5557 5556 5556 5557 5558 5559 5560 5561 5562 5565 5567 5570 5573 5575 5577 5581 5585 5591 5597 5603 5609
5679 5670 5659 5645 5634 5622 5611 5601 5591 5583 5575 5570 5566 5561 5558 5557 5555 5553 5551 5550 5549 5549 5550 5548 5547 5547 5547 5546 5548 5550 5551 5552 5553 5555 5557 5560 5562 5565 5567 5569 5572 5577 5583 5589 5596
5673 5662 5650 5637 5625 5613 5602 5593 5584 5577 5568 5562 5557 5553 5550 5549 5546 5543 5541 5540 5540 5539 5538 5537 5537 5537 5537 5537 5538 5539 5541 5542 5544 5546 5548 5550 5551 5552 5556 5560 5562 5566 5571 5577 5582
5666 5655 5643 5630 5618 5605 5594 5584 5577 5568 5561 5556 5550 5545 5543 5540 5536 5533 5531 5529 5529 5529 5529 5528 5527 5527 5528 5528 5529 5530 5531 5532 5535 5537 5539 5541 5542 5543 5546 5548 5551 5555 5559 5563 5568
5660 5648 5635 5622 5610 5598 5587 5578 5569 5560 5553 5547 5542 5537 5535 5531 5526 5523 5521 5519 5519 5519 5518 5518 5519 5519 5519 5519 5519 5520 5522 5523 5522 5525 5528 5529 5529 5534 5535 5537 5540 5543 5548 5551 5555
5652 5641 5628 5614 5601 5589 5579 5570 5559 5550 5545 5540 5535 5530 5526 5522 5518 5517 5515 5514 5513 5512 5511 5509 5509 5509 5508 5508 5510 5510 5510 5512 5512 5513 5515 5517 5520 5523 5524 5527 5530 5533 5536 5540 5543
5646 5633 5621 5607 5594 5582 5572 5561 5552 5544 5537 5531 5527 5523 5519 5516 5513 5511 5509 5508 5506 5504 5503 5502 5501 5499 5498 5498 5498 5498 5499 5500 5500 5500 5502 5503 5506 5509 5514 5517 5520 5522 5524 5528 5531
5640 5626 5613 5599 5587 5575 5565 5555 5546 5538 5532 5526 5521 5516 5513 5510 5508 5505 5503 5502 5499 5496 5495 5494 5493 5491 5489 5487 5486 5485 5484 5486 5487 5489 5489 5491 5493 5496 5500 5504 5507 5510 5513 5516 5518
5635 5622 5606 5594 5582 5569 5558 5548 5540 5532 5525 5519 5515 5510 5507 5504 5501 5498 5496 5494 5491 5489 5487 5485 5483 5480 5478 5475 5471 5470 5469 5471 5472 5475 5477 5480 5482 5483 5487 5491 5494 5499 5502 5505 5507
5630 5617 5603 5589 5576 5562 5551 5542 5534 5527 5520 5514 5509 5504 5501 5498 5496 5492 5490 5487 5484 5481 5479 5477 5475 5472 5467 5464 5458 5454 5453 5455 5459 5462 5464 5468 5468 5472 5476 5479 5483 5486 5489 5492 5495
5623 5608 5595 5582 5567 5556 5547 5538 5530 5523 5517 5511 5505 5500 5496 5493 5489 5486 5483 5480 5477 5474 5472 5470 5467 5464 5461 5456 5451 5445 5445 5446 5449 5452 5453 5457 5458 5460 5463 5467 5469 5474 5478 5480 5484
5613 5599 5586 5574 5562 5552 5542 5533 5525 5517 5512 5507 5502 5496 5491 5487 5484 5481 5478 5474 5471 5468 5465 5464 5461 5457 5452 5446 5442 5439 5439 5441 5443 5444 5445 5447 5449 5451 5452 5455 5458 5461 5465 5468 5471
5607 5593 5580 5568 5557 5547 5538 5530 5522 5515 5509 5503 5498 5492 5488 5484 5480 5476 5473 5470 5466 5464 5462 5458 5454 5450 5446 5440 5437 5434 5433 5433 5435 5435 5437 5437 5438 5440 5443 5444 5446 5449 5451 5454 5458
5601 5589 5576 5565 5553 5544 5536 5527 5519 5512 5507 5500 5494 5489 5484 5480 5476 5472 5469 5466 5462 5459 5456 5453 5450 5447 5443 5438 5433 5431 5429 5426 5425 5426 5426 5427 5429 5429 5431 5433 5435 5436 5437 5440 5444